Zurück zum Katalog

STARLINK-5555

AktivKommunikationVLEO
NORAD 55386·PAYLOAD·🇺🇸 United States

Gestartet Jan 26, 2023 von Cape Canaveral Space Force Station

Loading…

Nächste Überflüge (nächste 24 Stunden)

TLE

AktuellSource: CelesTrak SupGP

Epoche: Sep 14, 2026, 21:35 UTC

1 55386C 23013BH  26257.89979167 -.00096052  00000+0 -34791-2 0  2570
2 55386  43.0019 329.8592 0001730 267.4448 206.2496 15.27624403    14

Verfolge STARLINK-5555 in Echtzeit mit AllMySat

Download on the App Store